[[{"header":{"parameterUnit":"m.s-1","parameterCategory":1,"la1":30.2991,"la2":30.254,"lo1":-89.0895,"lo2":-89.0444,"dy":0.0017,"dx":0.0017,"nx":28,"ny":28,"refTime":"2025-06-11T03:00:00:Z","depth":0,"parameterNumber":2,"parameterNumberName":"U-component_of_WINDS"},"data":[0,0,0,0,0,0,0,0,0,0,0,0,0,0,0,0,0,0,0,0,0,0,0,0,0,0,0,0,0,0,0,0,0,0,0,0,0,0,0,0,0,0,0,0,0,0,0,0,0,0,0,0,0,0,0,0,0,0,-2.2634,-2.2635,0,-2.2701,-2.2701,-2.2702,-2.2695,-2.2694,-2.2693,-2.2692,-2.2763,-2.2765,-2.2768,0,0,0,0,0,0,0,0,0,0,0,0,0,-2.2504,-2.2507,-2.2634,-2.2635,-2.2636,-2.2701,-2.2702,-2.2702,-2.2696,-2.2694,-2.2693,-2.2692,-2.2762,-2.2765,-2.2768,0,0,0,0,0,0,0,0,0,0,0,0,0,-2.2565,-2.2507,-2.2634,-2.264,-2.2641,-2.27,-2.2702,-2.2703,-2.2696,-2.2694,-2.2693,-2.2691,-2.2761,-2.2765,-2.2769,-2.2827,0,0,-2.2782,-2.2784,0,0,0,0,0,0,0,0,-2.2561,-2.257,-2.2638,-2.264,-2.2641,-2.2688,-2.2681,-2.2744,-2.2696,-2.2675,-2.2692,-2.269,-2.2739,-2.2745,-2.2761,-2.283,-2.2833,-2.2782,-2.2785,-2.2787,-2.2788,0,0,0,0,0,0,0,-2.2557,-2.2567,-2.2661,-2.2639,-2.2641,-2.2641,-2.2647,-2.2693,-2.2715,-2.2677,-2.2677,-2.2684,-2.274,-2.2757,-2.2763,-2.2834,-2.2782,-2.2786,-2.2789,-2.279,-2.2955,-2.2956,0,0,0,0,0,0,-2.2551,-2.2563,-2.2658,-2.2663,-2.2597,-2.2644,-2.2652,-2.2675,-2.2715,-2.2719,-2.2686,-2.2684,-2.2751,-2.2758,-2.2765,-2.2836,-2.2787,-2.2791,-2.2793,-2.2953,-2.2955,-2.2957,0,0,0,0,0,0,-2.2548,-2.256,-2.2656,-2.2613,-2.2625,-2.2648,-2.2674,-2.2677,-2.2694,-2.2721,-2.2726,-2.2699,-2.275,-2.2759,-2.2812,-2.2838,-2.2793,-2.2797,-2.2951,-2.2954,-2.2956,-2.2977,0,0,0,0,0,0,-2.2545,-2.2559,-2.258,-2.2613,-2.2627,-2.27,-2.2675,-2.2679,-2.2701,-2.2699,-2.2735,-2.274,-2.2749,-2.2805,-2.2816,-2.2843,-2.28,-2.2948,-2.2952,-2.2955,-2.2974,-2.298,-2.2985,0,0,0,0,0,-2.254,-2.2584,-2.2581,-2.2593,-2.2655,-2.2702,-2.271,-2.2719,-2.2703,-2.2726,-2.2743,-2.2738,-2.2834,-2.2811,-2.2822,-2.2851,-2.2947,-2.2951,-2.2955,-2.2971,-2.2979,-2.2985,0,0,0,0,0,0,-2.2554,-2.2588,-2.2586,-2.2642,-2.2669,-2.27,-2.2729,-2.2727,-2.2759,-2.2756,-2.2768,-2.2776,-2.2828,-2.2845,-2.2819,-2.291,-2.2888,-2.2895,-2.2897,-2.2904,-2.2909,-2.2904,-2.2804,0,0,0,0,0,-2.2563,-2.2598,-2.2627,-2.2673,-2.2687,-2.2705,-2.2726,-2.2731,-2.276,-2.2772,-2.2793,-2.2822,-2.2859,-2.2882,-2.2917,-2.2977,-2.2985,-2.3003,-2.3008,-2.3013,-2.3018,-2.3051,-2.3059,-2.297,-2.297,-2.297,0,0,-2.2584,-2.2607,-2.2628,-2.2676,-2.2698,-2.2734,-2.2715,-2.2754,-2.2782,-2.2778,-2.2828,-2.2845,-2.2878,-2.2934,-2.296,-2.295,-2.3045,-2.3018,-2.3021,-2.3024,-2.3056,-2.3064,-2.3072,-2.2973,-2.2973,-2.2972,0,0,-2.2639,-2.2659,-2.27,-2.2722,-2.2755,-2.2767,-2.2777,-2.2809,-2.282,-2.2871,-2.2869,-2.2902,-2.2965,-2.2988,-2.3009,-2.3073,-2.307,-2.3085,-2.3114,-2.3146,-2.3153,-2.3159,-2.3182,-2.319,-2.309,-2.309,-2.309,0,-2.266,-2.2713,-2.2722,-2.2761,-2.2783,-2.2781,-2.2823,-2.2844,-2.2887,-2.2903,-2.2891,-2.2969,-2.2991,-2.3053,-2.3069,-2.3085,-2.3097,-2.308,-2.3151,-2.3157,-2.3163,-2.3185,-2.3194,-2.3092,-2.3091,-2.3091,-2.3091,0,-2.2737,-2.2775,-2.2804,-2.2845,-2.287,-2.291,-2.2926,-2.2951,-2.2954,-2.2968,-2.302,-2.3046,-2.3087,-2.3102,-2.3106,-2.3165,-2.3157,-2.3148,-2.3126,-2.3173,-2.3194,-2.3202,-2.3094,-2.3093,-2.3093,-2.3092,0,0,-2.2803,-2.2847,-2.2858,-2.2876,-2.2912,-2.2942,-2.2983,-2.3022,-2.3043,-2.3073,-2.3108,-2.3161,-2.3153,-2.3176,-2.3182,-2.321,-2.326,-2.3198,-2.3199,-2.3208,-2.3326,-2.3333,-2.3342,-2.3258,-2.326,-2.3261,-2.3324,0,-2.2861,-2.2932,-2.2941,-2.3005,-2.304,-2.3039,-2.3074,-2.3101,-2.3115,-2.3148,-2.3164,-2.3201,-2.3188,-2.3202,-2.3229,-2.3248,-2.3284,-2.3244,-2.3291,-2.3293,-2.3282,-2.3353,-2.336,-2.3417,-2.3332,-2.3333,-2.3334,0,-2.2938,-2.2969,-2.3036,-2.3067,-2.3082,-2.3114,-2.315,-2.3181,-2.3212,-2.3221,-2.3246,-2.325,-2.3293,-2.327,-2.333,-2.3303,-2.3323,-2.3335,-2.3338,-2.3342,-2.3316,-2.3359,-2.3436,-2.3444,-2.3347,-2.3346,-2.3345,0,-2.2978,-2.3037,-2.3085,-2.31,-2.3138,-2.3161,-2.3178,-2.3207,-2.323,-2.3262,-2.3277,-2.3315,-2.3335,-2.3365,-2.3378,-2.336,-2.3438,-2.3416,-2.3446,-2.3446,-2.3462,-2.3461,-2.3543,-2.3476,-2.3476,-2.3476,-2.3476,0,-2.3042,-2.3083,-2.3103,-2.3132,-2.3178,-2.3189,-2.3235,-2.3251,-2.3277,-2.331,-2.3312,-2.3343,-2.336,-2.3394,-2.3405,-2.3453,-2.3463,-2.3471,-2.3474,-2.3471,-2.347,-2.3484,-2.348,-2.3478,-2.3478,-2.3477,-2.3477,0,-2.3095,-2.311,-2.3161,-2.3193,-2.3202,-2.3234,-2.3262,-2.3291,-2.3305,-2.3347,-2.3357,-2.338,-2.342,-2.3437,-2.3487,-2.3494,-2.3549,-2.3549,-2.3539,-2.3539,-2.3569,-2.3566,-2.3662,-2.3676,-2.3601,-2.3601,-2.3602,0,-2.3134,-2.3165,-2.32,-2.3222,-2.3239,-2.3275,-2.3298,-2.331,-2.3334,-2.3372,-2.3396,-2.3436,-2.3468,-2.3533,-2.3555,-2.3593,-2.3593,-2.3624,-2.3599,-2.3595,-2.3593,-2.3591,-2.3594,-2.3629,-2.363,-2.363,-2.3631,0,-2.3203,-2.3209,-2.3241,-2.3277,-2.3304,-2.3333,-2.3361,-2.3379,-2.3396,-2.3423,-2.3464,-2.3489,-2.3539,-2.3579,-2.3618,-2.3637,-2.3637,-2.3639,-2.3648,-2.3645,-2.3637,-2.3642,-2.3551,-2.3636,-2.3636,-2.3635,-2.3635,-2.3635,-2.325,-2.3278,-2.3306,-2.3342,-2.3365,-2.3391,-2.3419,-2.3437,-2.3471,-2.3512,-2.3518,-2.3561,-2.3592,-2.3644,-2.3665,-2.37,-2.3692,-2.3705,-2.3708,-2.3711,-2.3713,-2.3632,-2.3707,-2.3707,-2.3707,-2.3707,-2.3707,0,-2.3318,-2.3337,-2.337,-2.3409,-2.3437,-2.3434,-2.3465,-2.349,-2.3528,-2.3556,-2.3587,-2.3634,-2.3673,-2.3698,-2.3737,-2.376,-2.3761,-2.377,-2.3768,-2.3773,-2.3718,-2.3706,-2.3769,-2.3769,-2.3769,-2.3769,-2.3769,-2.3769,-2.3357,-2.3404,-2.3413,-2.3471,-2.3489,-2.3531,-2.3549,-2.3574,-2.3596,-2.3648,-2.3679,-2.3695,-2.3722,-2.3763,-2.3799,-2.3805,-2.382,-2.3829,-2.3835,-2.3783,-2.3777,-2.3771,-2.3759,-2.3832,-2.3832,-2.3887,-2.3888,-2.3888]},{"header":{"parameterUnit":"m.s-1","parameterCategory":1,"la1":30.2991,"la2":30.254,"lo1":-89.0895,"lo2":-89.0444,"dy":0.0017,"dx":0.0017,"nx":28,"ny":28,"refTime":"2025-06-11T03:00:00:Z","depth":0,"parameterNumber":3,"parameterNumberName":"V-component_of_WINDS"},"data":[0,0,0,0,0,0,0,0,0,0,0,0,0,0,0,0,0,0,0,0,0,0,0,0,0,0,0,0,0,0,0,0,0,0,0,0,0,0,0,0,0,0,0,0,0,0,0,0,0,0,0,0,0,0,0,0,0,0,4.431,4.431,0,4.4344,4.4344,4.4344,4.4287,4.4285,4.4283,4.4281,4.4314,4.4316,4.4319,0,0,0,0,0,0,0,0,0,0,0,0,0,4.4193,4.4195,4.431,4.431,4.4311,4.4344,4.4344,4.4345,4.4287,4.4285,4.4282,4.428,4.4313,4.4316,4.4319,0,0,0,0,0,0,0,0,0,0,0,0,0,4.4237,4.4196,4.431,4.4286,4.4284,4.4344,4.4344,4.4345,4.4288,4.4285,4.4282,4.4279,4.4312,4.4316,4.432,4.4403,0,0,4.4332,4.4334,0,0,0,0,0,0,0,0,4.4234,4.4241,4.4289,4.4288,4.4286,4.4308,4.4315,4.4364,4.4288,4.4286,4.4281,4.4278,4.4314,4.4318,4.433,4.4404,4.4406,4.4332,4.4335,4.4336,4.4338,0,0,0,0,0,0,0,4.4231,4.4239,4.4323,4.429,4.4288,4.4273,4.4276,4.4324,4.4316,4.4286,4.4282,4.4287,4.4313,4.4327,4.4331,4.4406,4.4332,4.4336,4.4338,4.434,4.4548,4.4551,0,0,0,0,0,0,4.4232,4.4237,4.4322,4.4324,4.4253,4.4277,4.4281,4.4304,4.4315,4.4314,4.429,4.4284,4.4321,4.4326,4.4332,4.4428,4.4336,4.434,4.4342,4.4545,4.4548,4.4552,0,0,0,0,0,0,4.4229,4.424,4.4321,4.428,4.4289,4.4282,4.4309,4.4306,4.432,4.4318,4.4316,4.4305,4.4319,4.4326,4.4385,4.4428,4.4342,4.4346,4.4541,4.4546,4.455,4.4622,0,0,0,0,0,0,4.4226,4.4239,4.4272,4.4281,4.4291,4.4375,4.4312,4.4309,4.4327,4.4321,4.4332,4.4331,4.4317,4.4379,4.4389,4.4432,4.4349,4.4537,4.4543,4.4549,4.4616,4.4629,4.464,0,0,0,0,0,4.4222,4.4291,4.4274,4.4284,4.4332,4.4378,4.4383,4.4366,4.4331,4.4363,4.4361,4.4331,4.4422,4.4386,4.4396,4.4441,4.4534,4.4541,4.4548,4.4611,4.4626,4.464,0,0,0,0,0,0,4.4287,4.4292,4.4273,4.4347,4.4362,4.4368,4.4407,4.4384,4.4409,4.4402,4.4379,4.4382,4.4445,4.445,4.4409,4.4521,4.4472,4.4482,4.4516,4.4531,4.4543,4.4539,4.4352,0,0,0,0,0,4.431,4.4347,4.4349,4.4414,4.4423,4.4414,4.4433,4.4419,4.4434,4.444,4.4443,4.4458,4.4489,4.4511,4.454,4.4617,4.4617,4.4653,4.4665,4.4675,4.4682,4.4721,4.4736,4.4575,4.4575,4.4575,0,0,4.4357,4.4365,4.439,4.4427,4.4438,4.4476,4.442,4.4463,4.4491,4.4446,4.4502,4.4504,4.4519,4.4587,4.4617,4.4593,4.4727,4.4683,4.4691,4.4694,4.473,4.4745,4.4758,4.458,4.4579,4.4578,0,0,4.4463,4.4473,4.4527,4.4538,4.4555,4.4548,4.4561,4.457,4.457,4.4626,4.4593,4.4625,4.4681,4.4692,4.4705,4.4814,4.4786,4.4824,4.4886,4.4924,4.4936,4.4947,4.4984,4.4997,4.4832,4.4833,4.4833,0,4.4519,4.4576,4.4558,4.4603,4.4619,4.4581,4.4634,4.4646,4.4671,4.4683,4.4655,4.4723,4.4731,4.48,4.4826,4.4839,4.4851,4.4822,4.4936,4.4947,4.4957,4.4991,4.5005,4.4837,4.4836,4.4836,4.4836,0,4.4644,4.4684,4.4725,4.475,4.4771,4.4821,4.4808,4.4832,4.4815,4.4811,4.4867,4.4875,4.4904,4.492,4.4905,4.4986,4.497,4.494,4.489,4.4977,4.5009,4.5022,4.4843,4.4842,4.484,4.4839,0,0,4.4791,4.4804,4.4819,4.4829,4.4844,4.4873,4.492,4.4949,4.4969,4.4987,4.5024,4.5072,4.5043,4.5058,4.5044,4.5078,4.516,4.5043,4.5042,4.5062,4.5248,4.5269,4.5284,4.5143,4.5145,4.5147,4.5245,0,4.4893,4.4974,4.4958,4.5036,4.5071,4.5035,4.5076,4.5088,4.5086,4.5114,4.5111,4.5144,4.5106,4.5114,4.5146,4.5143,4.5196,4.5136,4.5175,4.5177,4.517,4.5301,4.5324,4.5417,4.5258,4.526,4.5262,0,4.5024,4.5047,4.5129,4.5136,4.515,4.5187,4.5211,4.5239,4.5252,4.5248,4.5264,4.5243,4.5287,4.5238,4.5298,4.5258,4.5273,4.5274,4.5277,4.5278,4.5223,4.5304,4.5446,4.5459,4.5282,4.528,4.5279,0,4.512,4.5172,4.5226,4.5236,4.5247,4.5273,4.5278,4.5288,4.5306,4.5327,4.5338,4.5364,4.5378,4.5398,4.5383,4.5349,4.5445,4.5395,4.5441,4.5441,4.5461,4.546,4.5606,4.5475,4.5475,4.5475,4.5474,0,4.5236,4.5286,4.5269,4.5303,4.5358,4.5339,4.5394,4.5395,4.5404,4.5436,4.5407,4.5438,4.5418,4.5447,4.5436,4.5486,4.5493,4.5489,4.5485,4.5491,4.5491,4.5499,4.5491,4.5478,4.5477,4.5477,4.5476,0,4.5351,4.5342,4.5399,4.5404,4.5406,4.5447,4.545,4.5481,4.5476,4.5517,4.5525,4.5517,4.5549,4.5537,4.5572,4.5564,4.5628,4.5616,4.5623,4.5619,4.5665,4.566,4.5819,4.5838,4.5697,4.5699,4.57,0,4.5425,4.5463,4.5471,4.5491,4.5498,4.553,4.5548,4.553,4.5549,4.5566,4.5594,4.5624,4.5646,4.5699,4.5696,4.5721,4.5709,4.5763,4.5713,4.5716,4.5707,4.5704,4.5707,4.5773,4.5774,4.5776,4.5777,0,4.5555,4.5548,4.5575,4.56,4.5621,4.564,4.5656,4.5674,4.5656,4.568,4.5712,4.5729,4.5764,4.5793,4.5816,4.582,4.5795,4.5793,4.5804,4.5809,4.581,4.5808,4.5648,4.5789,4.5788,4.5787,4.5786,4.5786,4.565,4.5681,4.5692,4.5722,4.5732,4.5747,4.5775,4.5774,4.58,4.5827,4.5815,4.5852,4.5862,4.589,4.5898,4.5925,4.5904,4.5922,4.5926,4.593,4.5934,4.5808,4.593,4.593,4.5929,4.5929,4.5929,0,4.5777,4.5781,4.5809,4.5832,4.5855,4.5831,4.5847,4.5867,4.59,4.5912,4.5935,4.5971,4.5999,4.5997,4.6023,4.6045,4.6034,4.6052,4.6049,4.605,4.5953,4.5939,4.606,4.606,4.606,4.606,4.606,4.606,4.5845,4.5896,4.589,4.5945,4.5949,4.5985,4.5996,4.6009,4.6018,4.606,4.6082,4.6081,4.6087,4.6113,4.6136,4.6135,4.6145,4.6167,4.6161,4.607,4.6057,4.6044,4.6031,4.6169,4.617,4.6255,4.6256,4.6256]}]]